This is the latest recevied weather packets stored in our database for station/object HI3RRR-13. If no packets are shown the sender has not sent any weather packets the latest 10 day(s).
| Time | Temp. | Humidity | Pressure | Rain* | Wind** | Luminosity | Snow |
|---|---|---|---|---|---|---|---|
| 1788550544 | 35° C | 49% | 1012 hPa | 0 mm | - | - | - |
| 1788549943 | 35° C | 50% | 1012 hPa | 0 mm | - | - | - |
| 1788549342 | 35° C | 50% | 1012 hPa | 0 mm | - | - | - |
| 1788548742 | 35° C | 50% | 1012 hPa | 0 mm | - | - | - |
| 1788548141 | 34.44° C | 51% | 1012 hPa | 0 mm | - | - | - |
| 1788547541 | 34.44° C | 51% | 1012 hPa | 0 mm | - | - | - |
| 1788546940 | 34.44° C | 52% | 1012 hPa | 0 mm | - | - | - |
| 1788546339 | 34.44° C | 53% | 1013 hPa | 0 mm | - | - | - |
| 1788545739 | 34.44° C | 54% | 1013 hPa | 0 mm | - | - | - |
| 1788545138 | 34.44° C | 54% | 1013 hPa | 0 mm | - | - | - |
| 1788544538 | 33.33° C | 59% | 1013 hPa | 0 mm | - | - | - |
| 1788543937 | 33.33° C | 59% | 1013 hPa | 0 mm | - | - | - |
| 1788543336 | 33.33° C | 59% | 1013 hPa | 0 mm | - | - | - |
| 1788542736 | 32.78° C | 58% | 1014 hPa | 0 mm | - | - | - |
| 1788542135 | 34.44° C | 64% | 1014 hPa | 0 mm | - | - | - |
| 1788541534 | 34.44° C | 64% | 1014 hPa | 0 mm | - | - | - |
| 1788540934 | 35° C | 64% | 1014 hPa | 0 mm | - | - | - |
| 1788540333 | 35° C | 64% | 1014 hPa | 0 mm | - | - | - |
| 1788539733 | 32.22° C | 57% | 1014 hPa | 0 mm | - | - | - |
| 1788539132 | 32.22° C | 59% | 1015 hPa | 0 mm | - | - | - |
| 1788538531 | 32.22° C | 60% | 1015 hPa | 0 mm | - | - | - |
| 1788537931 | 32.22° C | 61% | 1015 hPa | 0 mm | - | - | - |
| 1788537330 | 31.11° C | 67% | 1015 hPa | 0 mm | - | - | - |
| 1788536746 | 31.11° C | 67% | 1015 hPa | 0 mm | - | - | - |
| 1788536129 | 30.56° C | 66% | 1015 hPa | 0 mm | - | - | - |
* Rain latest hour (hover to see other rain measurements)
** Current wind speed in m/s (hover to see current wind gust speed)